Weather History for Osceola Municipal, IA

Change the Weather History Date:

Thursday, August 9, 2012

  Actual Average (KLWD) Record (KLWD)
Temperature  
Mean Temperature 72 °F 75 °F  
Max Temperature 81 °F 85 °F 101 °F (1980)
Min Temperature 63 °F 65 °F 52 °F (1972)
Degree Days  
Heating Degree Days 0 0  
Month to date heating degree days 0  
Since 1 June heating degree days 21  
Since 1 July heating degree days 2  
Cooling Degree Days 7 10  
Month to date cooling degree days 90  
Year to date cooling degree days 653  
Since 1 June cooling degree days 599  
Growing Degree Days 22 (Base 50)    
Moisture  
Dew Point 60 °F    
Average Humidity 71    
Maximum Humidity 93    
Minimum Humidity 41    
Precipitation  
Precipitation 0.00 in 0.12 in 3.16 in (1977)
Month to date precipitation 1.18  
Sea Level Pressure  
Sea Level Pressure 29.96 in    
Wind  
Wind Speed 6 mph (NNW)    
Max Wind Speed 14 mph    
Max Gust Speed 23 mph    
Visibility 9 miles    
Events      
T = Trace of Precipitation, MM = Missing Value Source: NWS Daily Summary

Daily Weather History Graph

Daily Weather History Graph

Search for Another Location

Airport:

Trip Planner

Search our weather history database for the weather conditions in past years. The results will help you decide how hot, cold, wet, or windy it might be!

Date:

Astronomy

Aug. 09, 2012 Rise Set
Actual Time 6:18 AM CDT 8:20 PM CDT
Civil Twilight 5:48 AM CDT 8:50 PM CDT
Nautical Twilight 5:12 AM CDT 9:27 PM CDT
Astronomical Twilight 4:31 AM CDT 10:07 PM CDT
Moon No Moon Rise 2:05 PM CDT (8/9)
Length of Visible Light 15h 01m
Length of Day
14h 01m
Waning Gibbous, 51% of the Moon is Illuminated
Aug 9
Waning Gibbous
Aug 9
Last Quarter
Aug 17
New
Aug 24
First Quarter
Aug 31
Full

Hourly Weather History & Observations

Time (CDT) Temp. Heat Index Dew Point Humidity Pressure Visibility Wind Dir Wind Speed Gust Speed Precip Events Conditions
12:15 AM 66.6 °F - 63.1 °F 89% 29.93 in 10.0 mi NNE 3.5 mph - N/A   Clear
12:35 AM 66.0 °F - 63.0 °F 90% 29.93 in 10.0 mi NNE 3.5 mph - N/A   Clear
12:55 AM 66.2 °F - 63.0 °F 89% 29.92 in 10.0 mi North 4.6 mph - N/A   Clear
1:15 AM 65.3 °F - 62.2 °F 90% 29.92 in 10.0 mi Calm Calm - N/A   Clear
1:35 AM 64.9 °F - 62.1 °F 90% 29.92 in 10.0 mi Calm Calm - N/A   Scattered Clouds
1:55 AM 65.3 °F - 62.6 °F 91% 29.93 in 10.0 mi Calm Calm - N/A   Mostly Cloudy
2:15 AM 65.3 °F - 62.6 °F 91% 29.93 in 10.0 mi Calm Calm - N/A   Mostly Cloudy
2:35 AM 64.6 °F - 62.1 °F 92% 29.93 in 10.0 mi South 3.5 mph - N/A   Mostly Cloudy
2:55 AM 64.4 °F - 61.9 °F 92% 29.92 in 10.0 mi West 3.5 mph - N/A   Overcast
3:15 AM 63.9 °F - 61.7 °F 93% 29.92 in 10.0 mi WSW 3.5 mph - N/A   Overcast
3:35 AM 64.6 °F - 62.4 °F 93% 29.92 in 10.0 mi NW 3.5 mph - N/A   Overcast
3:55 AM 65.1 °F - 62.4 °F 91% 29.92 in 10.0 mi WSW 4.6 mph - N/A   Overcast
4:15 AM 65.1 °F - 62.6 °F 92% 29.93 in 10.0 mi West 4.6 mph - N/A   Overcast
4:35 AM 65.5 °F - 62.8 °F 91% 29.93 in 10.0 mi West 5.8 mph - N/A   Overcast
4:55 AM 65.7 °F - 62.8 °F 90% 29.93 in 10.0 mi West 4.6 mph - N/A   Mostly Cloudy
5:15 AM 65.3 °F - 61.9 °F 89% 29.93 in 10.0 mi West 5.8 mph - N/A   Scattered Clouds
5:35 AM 64.8 °F - 61.7 °F 90% 29.94 in 10.0 mi West 6.9 mph - N/A   Clear
5:55 AM 64.6 °F - 61.3 °F 89% 29.94 in 10.0 mi WNW 5.8 mph - N/A   Clear
6:15 AM 64.4 °F - 61.3 °F 90% 29.94 in 10.0 mi NW 5.8 mph - N/A   Clear
6:35 AM 64.6 °F - 62.1 °F 92% 29.94 in 10.0 mi NNW 8.1 mph - N/A   Clear
6:55 AM 64.8 °F - 62.6 °F 93% 29.95 in 7.0 mi NNW 8.1 mph - N/A   Scattered Clouds
7:15 AM 65.5 °F - 63.0 °F 92% 29.95 in 5.0 mi North 6.9 mph - N/A   Mostly Cloudy
7:35 AM 65.7 °F - 63.0 °F 91% 29.95 in 5.0 mi North 5.8 mph - N/A   Overcast
7:55 AM 66.2 °F - 63.1 °F 90% 29.96 in 5.0 mi NNW 9.2 mph - N/A   Overcast
8:15 AM 66.2 °F - 63.1 °F 90% 29.97 in 7.0 mi North 10.4 mph - N/A   Overcast
8:35 AM 65.8 °F - 62.8 °F 90% 29.98 in 7.0 mi NNW 12.7 mph 19.6 mph N/A   Overcast
8:55 AM 66.2 °F - 62.6 °F 88% 29.98 in 5.0 mi NNW 11.5 mph 18.4 mph N/A   Overcast
9:15 AM 66.7 °F - 63.3 °F 89% 29.99 in 7.0 mi NNW 9.2 mph - N/A   Overcast
9:35 AM 67.1 °F - 63.0 °F 87% 30.00 in 10.0 mi NNW 10.4 mph - N/A   Overcast
9:55 AM 67.1 °F - 63.3 °F 88% 30.00 in 7.0 mi NNW 9.2 mph 17.3 mph N/A   Overcast
10:15 AM 67.5 °F - 63.7 °F 88% 30.00 in 7.0 mi NNW 6.9 mph - N/A   Overcast
10:35 AM 68.5 °F - 64.0 °F 85% 29.99 in 10.0 mi North 5.8 mph - N/A   Overcast
10:55 AM 70.9 °F - 63.9 °F 78% 29.99 in 10.0 mi NNW 9.2 mph - N/A   Overcast
11:15 AM 72.0 °F - 63.1 °F 74% 29.99 in 10.0 mi North 9.2 mph - N/A   Overcast
11:35 AM 71.6 °F - 63.5 °F 76% 29.99 in 10.0 mi NNW 8.1 mph - N/A   Overcast
11:55 AM 72.7 °F - 63.0 °F 71% 29.99 in 10.0 mi North 9.2 mph - N/A   Overcast
12:15 PM 72.9 °F - 63.3 °F 72% 29.99 in 10.0 mi North 10.4 mph - N/A   Overcast
12:35 PM 73.2 °F - 62.8 °F 70% 29.99 in 10.0 mi NNW 10.4 mph - N/A   Overcast
12:55 PM 73.6 °F - 62.4 °F 68% 29.99 in 10.0 mi NNW 10.4 mph 16.1 mph N/A   Overcast
1:15 PM 75.2 °F - 61.7 °F 63% 29.98 in 10.0 mi NNW 11.5 mph - N/A   Overcast
1:35 PM 75.9 °F - 61.3 °F 60% 29.98 in 10.0 mi North 12.7 mph 19.6 mph N/A   Mostly Cloudy
1:55 PM 78.1 °F - 61.2 °F 56% 29.98 in 10.0 mi North 10.4 mph 18.4 mph N/A   Mostly Cloudy
2:15 PM 78.4 °F - 60.1 °F 53% 29.98 in 10.0 mi NNW 13.8 mph 19.6 mph N/A   Scattered Clouds
2:35 PM 79.5 °F - 61.0 °F 53% 29.98 in 10.0 mi NNW 8.1 mph - N/A   Scattered Clouds
2:55 PM 79.9 °F - 60.1 °F 51% 29.97 in 10.0 mi NNW 10.4 mph 18.4 mph N/A   Scattered Clouds
3:15 PM 81.0 °F 81.5 °F 59.4 °F 48% 29.97 in 10.0 mi NNW 12.7 mph 23.0 mph N/A   Scattered Clouds
3:35 PM 80.6 °F 80.9 °F 58.3 °F 46% 29.96 in 10.0 mi North 12.7 mph 17.3 mph N/A   Clear
3:55 PM 80.4 °F 80.9 °F 58.5 °F 47% 29.95 in 10.0 mi North 11.5 mph 18.4 mph N/A   Scattered Clouds
4:15 PM 81.0 °F 81.0 °F 57.4 °F 44% 29.95 in 10.0 mi NNW 10.4 mph 19.6 mph N/A   Scattered Clouds
4:35 PM 80.8 °F 80.8 °F 56.7 °F 43% 29.95 in 10.0 mi North 11.5 mph 17.3 mph N/A   Scattered Clouds
4:55 PM 81.5 °F 81.1 °F 55.9 °F 41% 29.95 in 10.0 mi North 9.2 mph 19.6 mph N/A   Scattered Clouds
5:15 PM 81.7 °F 81.3 °F 55.8 °F 41% 29.94 in 10.0 mi NNW 11.5 mph 16.1 mph N/A   Scattered Clouds
5:35 PM 80.8 °F 80.8 °F 56.7 °F 43% 29.94 in 10.0 mi North 9.2 mph - N/A   Scattered Clouds
5:55 PM 80.6 °F 80.7 °F 57.0 °F 44% 29.94 in 10.0 mi NNW 8.1 mph - N/A   Scattered Clouds
6:15 PM 80.1 °F 80.2 °F 55.9 °F 43% 29.94 in 7.0 mi North 8.1 mph - N/A   Scattered Clouds
6:35 PM 79.9 °F - 56.1 °F 44% 29.94 in 10.0 mi NNW 6.9 mph - N/A   Clear
6:55 PM 79.0 °F - 57.0 °F 47% 29.94 in 10.0 mi NNW 5.8 mph - N/A   Scattered Clouds
7:15 PM 77.5 °F - 57.2 °F 49% 29.94 in 10.0 mi NNW 5.8 mph - N/A   Scattered Clouds
7:35 PM 77.2 °F - 57.6 °F 51% 29.95 in 10.0 mi NNW 8.1 mph - N/A   Overcast
7:55 PM 77.2 °F - 57.0 °F 50% 29.95 in 10.0 mi NNW 9.2 mph 17.3 mph N/A   Scattered Clouds
8:15 PM 75.7 °F - 55.4 °F 49% 29.97 in 10.0 mi North 11.5 mph 16.1 mph N/A   Clear
8:35 PM 74.5 °F - 53.8 °F 48% 29.97 in 10.0 mi NNW 10.4 mph - N/A   Clear
8:55 PM 73.0 °F - 52.2 °F 48% 29.98 in 10.0 mi NNW 8.1 mph - N/A   Clear
9:15 PM 72.1 °F - 51.8 °F 49% 29.98 in 10.0 mi NNW 8.1 mph - N/A   Clear
9:35 PM 69.8 °F - 52.3 °F 54% 29.99 in 10.0 mi NNW 4.6 mph - N/A   Clear
9:55 PM 69.3 °F - 52.3 °F 55% 29.99 in 10.0 mi NNW 6.9 mph - N/A   Clear
10:15 PM 68.9 °F - 52.9 °F 57% 29.99 in 10.0 mi NNW 6.9 mph - N/A   Clear
10:35 PM 67.5 °F - 53.2 °F 60% 30.00 in 10.0 mi NNW 5.8 mph - N/A   Clear
10:55 PM 66.6 °F - 53.8 °F 63% 30.00 in 10.0 mi North 6.9 mph - N/A   Clear
11:15 PM 65.5 °F - 54.7 °F 68% 30.01 in 10.0 mi North 5.8 mph - N/A   Clear
11:55 PM 63.9 °F - 56.5 °F 77% 30.01 in 10.0 mi North 4.6 mph - N/A   Clear